Voltar ao catálogo

STARLINK-34163

AtivoComunicaçõesVLEO
NORAD 64008·PAYLOAD·🇺🇸 United States

Lançado May 14, 2025 de Cape Canaveral Space Force Station

Loading…

Próximas Passagens (próximas 24 horas)

TLE

AtualizadoSource: CelesTrak SupGP

Época: Sep 14, 2026, 22:57 UTC

1 64008C 25101Q   26257.95673611 -.00011888  00000+0 -43056-3 0  2572
2 64008  43.0025   9.2504 0001771 272.3508 288.4331 15.27584364    12

Acompanhe STARLINK-34163 em tempo real com AllMySat

Download on the App Store